{"data":{"norad_id":67240,"epoch":"2026-09-20T22:22:13.802880Z","epoch_age_seconds":65806,"freshness":"FRESH","line1":"1 67240U 25311E   26263.93210420 -.00000105  00000+0  41449-4 0  9993","line2":"2 67240  50.0048 132.5007 0000167 338.6303  21.4562 13.29327676 36078","mean_motion":13.29327676,"eccentricity":1.67e-5,"inclination_deg":50.0048,"raan_deg":132.5007,"arg_perigee_deg":338.6303,"mean_anomaly_deg":21.4562,"bstar":4.1449e-5,"rev_number":3607,"period_min":108.32543593262,"perigee_km":1149.1745366449,"apogee_km":1149.4259530489,"semimajor_km":7527.4372448469,"source":"CELESTRAK","updated_at":"2026-09-21T09:00:16.508855Z"}}